| time (UTC) | temp F | wind direction | speed knots | gust knots | rain 1hr in | rain 24hr in | rain mn in | humidity % | barometer mb |
| 20260509000036 | 62 | 259 | 1.7 | 6.1 | 0.00 | 0.00 | 0.00 | 45 | 1006.5 |
| 20260508234534 | 64 | 255 | 2.6 | 6.1 | 0.00 | 0.00 | 0.00 | 42 | 1006.5 |
| 20260508233037 | 64 | 231 | 2.6 | 5.2 | 0.00 | 0.00 | 0.00 | 40 | 1006.5 |
| 20260508231537 | 64 | 321 | 2.6 | 8.7 | 0.00 | 0.00 | 0.00 | 40 | 1006.5 |
| 20260508230050 | 63 | 212 | 1.7 | 6.1 | 0.00 | 0.00 | 0.00 | 41 | 1006.6 |
| 20260508224537 | 63 | 331 | 2.6 | 10.4 | 0.00 | 0.00 | 0.00 | 39 | 1006.6 |
| 20260508223034 | 64 | 282 | 1.7 | 12.2 | 0.00 | 0.00 | 0.00 | 39 | 1006.6 |
| 20260508221537 | 65 | 293 | 1.7 | 6.1 | 0.00 | 0.00 | 0.00 | 40 | 1006.8 |
| 20260508220046 | 63 | 266 | 2.6 | 7.8 | 0.00 | 0.00 | 0.00 | 42 | 1007.0 |
| 20260508214546 | 64 | 252 | 2.6 | 12.2 | 0.00 | 0.00 | 0.00 | 40 | 1006.9 |
| 20260508213037 | 63 | 253 | 2.6 | 10.4 | 0.00 | 0.00 | 0.00 | 42 | 1007.0 |
| 20260508211536 | 65 | 309 | 4.3 | 8.7 | 0.00 | 0.00 | 0.00 | 41 | 1006.9 |
| 20260508210042 | 64 | 239 | 2.6 | 11.3 | 0.00 | 0.00 | 0.00 | 41 | 1007.1 |
| 20260508204541 | 64 | 271 | 3.5 | 10.4 | 0.00 | 0.00 | 0.00 | 38 | 1007.0 |
| 20260508203037 | 63 | 263 | 4.3 | 9.6 | 0.00 | 0.00 | 0.00 | 38 | 1007.2 |
| 20260508201537 | 63 | 241 | 4.3 | 11.3 | 0.00 | 0.00 | 0.00 | 38 | 1007.4 |
| 20260508200045 | 62 | 256 | 1.7 | 11.3 | 0.00 | 0.00 | 0.00 | 39 | 1007.7 |
| 20260508194535 | 63 | 256 | 5.2 | 11.3 | 0.00 | 0.00 | 0.00 | 39 | 1008.0 |
| 20260508193037 | 63 | 307 | 4.3 | 11.3 | 0.00 | 0.00 | 0.00 | 41 | 1008.2 |
| 20260508191544 | 62 | 310 | 3.5 | 13.0 | 0.00 | 0.00 | 0.00 | 39 | 1008.5 |
| 20260508190049 | 62 | 278 | 3.5 | 8.7 | 0.00 | 0.00 | 0.00 | 41 | 1008.8 |
| 20260508184556 | 62 | 248 | 4.3 | 12.2 | 0.00 | 0.00 | 0.00 | 42 | 1009.2 |
| 20260508183037 | 62 | 293 | 3.5 | 7.0 | 0.00 | 0.00 | 0.00 | 42 | 1009.3 |
| 20260508181550 | 62 | 91 | 3.5 | 7.8 | 0.00 | 0.00 | 0.00 | 41 | 1009.4 |
| 20260508180036 | 60 | 320 | 2.6 | 10.4 | 0.00 | 0.00 | 0.00 | 43 | 1009.4 |
| 20260508174543 | 60 | 296 | 4.3 | 13.0 | 0.00 | 0.00 | 0.00 | 43 | 1009.8 |
| 20260508173043 | 60 | 241 | 5.2 | 11.3 | 0.00 | 0.00 | 0.00 | 40 | 1009.8 |
| 20260508171536 | 60 | 257 | 4.3 | 11.3 | 0.00 | 0.00 | 0.00 | 41 | 1010.3 |
| 20260508170040 | 59 | 101 | 2.6 | 7.0 | 0.00 | 0.00 | 0.00 | 44 | 1010.6 |
| 20260508164554 | 59 | 210 | 2.6 | 7.0 | 0.00 | 0.00 | 0.00 | 47 | 1010.8 |
| 20260508163040 | 57 | 321 | 0.9 | 7.0 | 0.00 | 0.00 | 0.00 | 47 | 1010.7 |
| 20260508161547 | 57 | 264 | 3.5 | 11.3 | 0.00 | 0.00 | 0.00 | 48 | 1011.0 |
| 20260508160040 | 57 | 263 | 2.6 | 6.1 | 0.00 | 0.00 | 0.00 | 50 | 1011.2 |
| 20260508154541 | 56 | 245 | 2.6 | 6.1 | 0.00 | 0.00 | 0.00 | 52 | 1011.3 |
| 20260508153103 | 55 | 270 | 1.7 | 7.0 | 0.00 | 0.00 | 0.00 | 52 | 1011.4 |
| 20260508151533 | 55 | 349 | 0.9 | 4.3 | 0.00 | 0.00 | 0.00 | 53 | 1011.5 |
| 20260508150045 | 54 | 23 | 2.6 | 6.1 | 0.00 | 0.00 | 0.00 | 54 | 1011.6 |
| 20260508144551 | 53 | 83 | 1.7 | 5.2 | 0.00 | 0.00 | 0.00 | 52 | 1011.6 |
| 20260508143037 | 53 | 262 | 2.6 | 5.2 | 0.00 | 0.00 | 0.00 | 52 | 1011.9 |
| 20260508141542 | 54 | 226 | 0.9 | 4.3 | 0.00 | 0.00 | 0.00 | 63 | 1011.9 |
| 20260508140048 | 51 | 240 | 1.7 | 4.3 | 0.00 | 0.00 | 0.00 | 65 | 1012.1 |
| 20260508134540 | 51 | 125 | 0.9 | 2.6 | 0.00 | 0.00 | 0.00 | 69 | 1012.2 |
| 20260508133104 | 52 | 272 | 0.9 | 2.6 | 0.00 | 0.00 | 0.00 | 70 | 1012.3 |
| 20260508131538 | 50 | 92 | 0.0 | 1.7 | 0.00 | 0.00 | 0.00 | 75 | 1012.2 |
| 20260508130038 | 48 | 150 | 0.9 | 3.5 | 0.00 | 0.00 | 0.00 | 78 | 1012.2 |
| 20260508124536 | 47 | 106 | 1.7 | 3.5 | 0.00 | 0.00 | 0.00 | 79 | 1012.1 |
| 20260508123039 | 46 | 108 | 0.9 | 3.5 | 0.00 | 0.00 | 0.00 | 82 | 1011.9 |
| 20260508121538 | 45 | 124 | 0.9 | 3.5 | 0.00 | 0.00 | 0.00 | 86 | 1011.9 |
| 20260508120037 | 42 | 0 | 0.0 | 0.9 | 0.00 | 0.00 | 0.00 | 94 | 1011.8 |
| 20260508114536 | 39 | 0 | 0.0 | 0.0 | 0.00 | 0.00 | 0.00 | 94 | 1011.5 |
| 20260508113034 | 38 | 0 | 0.0 | 0.0 | 0.00 | 0.00 | 0.00 | 94 | 1011.3 |
| 20260508111535 | 36 | 0 | 0.0 | 0.0 | 0.00 | 0.00 | 0.00 | 93 | 1011.2 |
| 20260508110047 | 35 | 0 | 0.0 | 0.0 | 0.00 | 0.00 | 0.00 | 92 | 1011.1 |
| 20260508104539 | 35 | 0 | 0.0 | 0.0 | 0.00 | 0.00 | 0.00 | 92 | 1011.1 |
| 20260508103035 | 35 | 0 | 0.0 | 0.0 | 0.00 | 0.00 | 0.00 | 91 | 1010.8 |
| 20260508101534 | 35 | 0 | 0.0 | 0.0 | 0.00 | 0.00 | 0.00 | 91 | 1010.9 |
| 20260508100032 | 36 | 0 | 0.0 | 0.0 | 0.00 | 0.00 | 0.00 | 91 | 1010.9 |
| 20260508094534 | 36 | 0 | 0.0 | 0.0 | 0.00 | 0.00 | 0.00 | 90 | 1010.9 |
| 20260508093038 | 37 | 0 | 0.0 | 0.0 | 0.00 | 0.00 | 0.00 | 90 | 1010.9 |
| 20260508091542 | 37 | 0 | 0.0 | 0.0 | 0.00 | 0.00 | 0.00 | 90 | 1011.0 |
| 20260508090045 | 38 | 0 | 0.0 | 0.0 | 0.00 | 0.00 | 0.00 | 89 | 1011.0 |
| 20260508084535 | 38 | 0 | 0.0 | 0.0 | 0.00 | 0.00 | 0.00 | 88 | 1010.9 |
| 20260508083042 | 39 | 0 | 0.0 | 0.0 | 0.00 | 0.00 | 0.00 | 88 | 1011.0 |
| 20260508081537 | 40 | 0 | 0.0 | 0.0 | 0.00 | 0.00 | 0.00 | 86 | 1011.1 |
| 20260508080032 | 41 | 0 | 0.0 | 0.0 | 0.00 | 0.00 | 0.00 | 85 | 1011.2 |
| 20260508074544 | 42 | 0 | 0.0 | 0.9 | 0.00 | 0.00 | 0.00 | 84 | 1011.2 |
| 20260508073041 | 43 | 0 | 0.0 | 1.7 | 0.00 | 0.00 | 0.00 | 83 | 1011.3 |
| 20260508071549 | 43 | 0 | 0.0 | 1.7 | 0.00 | 0.00 | 0.00 | 81 | 1011.4 |
| 20260508070036 | 43 | 249 | 0.9 | 1.7 | 0.00 | 0.00 | 0.00 | 82 | 1011.5 |
| 20260508064538 | 44 | 281 | 0.0 | 2.6 | 0.00 | 0.00 | 0.00 | 80 | 1011.3 |
| 20260508063032 | 44 | 0 | 0.0 | 2.6 | 0.00 | 0.00 | 0.00 | 81 | 1011.3 |
| 20260508061537 | 43 | 0 | 0.0 | 0.9 | 0.00 | 0.00 | 0.00 | 82 | 1011.3 |
| 20260508060037 | 43 | 250 | 0.0 | 0.9 | 0.00 | 0.00 | 0.00 | 81 | 1011.5 |
| 20260508054535 | 42 | 0 | 0.0 | 0.0 | 0.00 | 0.00 | 0.00 | 81 | 1011.4 |
| 20260508053058 | 42 | 0 | 0.0 | 0.9 | 0.00 | 0.00 | 0.00 | 81 | 1011.5 |
| 20260508051535 | 42 | 0 | 0.0 | 0.9 | 0.00 | 0.00 | 0.00 | 79 | 1011.5 |
| 20260508050039 | 43 | 0 | 0.0 | 0.9 | 0.00 | 0.00 | 0.00 | 78 | 1011.6 |
| 20260508044537 | 44 | 127 | 0.0 | 0.9 | 0.00 | 0.00 | 0.00 | 77 | 1011.4 |
| 20260508043036 | 44 | 0 | 0.0 | 0.0 | 0.00 | 0.00 | 0.00 | 75 | 1011.6 |
| 20260508041558 | 46 | 0 | 0.0 | 0.9 | 0.00 | 0.00 | 0.00 | 72 | 1011.6 |
| 20260508040043 | 47 | 0 | 0.0 | 3.5 | 0.00 | 0.00 | 0.00 | 71 | 1011.4 |
| 20260508034535 | 47 | 257 | 0.9 | 3.5 | 0.00 | 0.00 | 0.00 | 71 | 1011.5 |
| 20260508033035 | 47 | 190 | 0.0 | 2.6 | 0.00 | 0.00 | 0.00 | 71 | 1011.3 |
| 20260508031537 | 47 | 160 | 0.0 | 1.7 | 0.00 | 0.00 | 0.00 | 70 | 1011.5 |
| 20260508030038 | 47 | 0 | 0.0 | 0.9 | 0.00 | 0.00 | 0.00 | 70 | 1011.8 |
| 20260508024538 | 48 | 0 | 0.0 | 0.0 | 0.00 | 0.00 | 0.00 | 67 | 1011.8 |
| 20260508023035 | 48 | 0 | 0.0 | 2.6 | 0.00 | 0.00 | 0.00 | 66 | 1011.7 |
| 20260508021534 | 49 | 0 | 0.0 | 1.7 | 0.00 | 0.00 | 0.00 | 65 | 1011.6 |
| 20260508020040 | 50 | 239 | 0.9 | 10.4 | 0.00 | 0.00 | 0.00 | 61 | 1011.6 |
| 20260508014537 | 49 | 120 | 1.7 | 5.2 | 0.00 | 0.00 | 0.00 | 58 | 1011.6 |
| 20260508013038 | 48 | 237 | 0.9 | 1.7 | 0.00 | 0.00 | 0.00 | 60 | 1011.5 |
| 20260508011540 | 48 | 0 | 0.0 | 0.9 | 0.00 | 0.00 | 0.00 | 58 | 1011.1 |
| 20260508010034 | 50 | 0 | 0.0 | 0.0 | 0.00 | 0.00 | 0.00 | 56 | 1010.9 |
| 20260508004534 | 51 | 256 | 0.0 | 1.7 | 0.00 | 0.00 | 0.00 | 51 | 1011.0 |
| 20260508003036 | 51 | 265 | 1.7 | 4.3 | 0.00 | 0.00 | 0.00 | 50 | 1010.9 |
| 20260508001537 | 52 | 300 | 2.6 | 7.0 | 0.00 | 0.00 | 0.00 | 49 | 1011.0 |